KC1DMA Weather Reports


time (UTC)temp
C
wind
direction
speed
KPH
gust
KPH
rain 1hr
cm
rain 24hr
cm
rain mn
cm
humidity
%
barometer
mb
20260901113301 20 119 4.8 4.8 0.00 0.00 0.00 99 1018.0
20260901112755 20 180 0.0 4.8 0.00 0.00 0.00 99 1018.3
20260901112250 20 113 0.0 4.8 0.00 0.00 0.00 99 1017.9
20260901111745 20 120 1.6 3.2 0.00 0.00 0.00 99 1018.2
20260901111243 20 113 0.0 3.2 0.00 0.00 0.00 99 1018.1
20260901110737 20 94 1.6 3.2 0.00 0.00 0.00 99 1018.2
20260901110233 20 135 0.0 3.2 0.00 0.00 0.00 99 1018.2
20260901105730 20 124 3.2 3.2 0.00 0.00 0.00 99 1018.2
20260901105229 20 140 0.0 4.8 0.00 0.00 0.00 99 1018.2
20260901104725 20 118 1.6 4.8 0.00 0.00 0.00 99 1018.1
20260901104220 19 138 3.2 4.8 0.00 0.00 0.00 99 1017.9
20260901103719 19 140 3.2 4.8 0.00 0.00 0.00 98 1018.1
20260901103215 19 68 0.0 3.2 0.00 0.00 0.00 98 1018.3
20260901102715 19 126 3.2 4.8 0.00 0.00 0.00 98 1018.0
20260901102214 19 120 3.2 4.8 0.00 0.00 0.00 98 1018.1
20260901101710 19 63 0.0 6.4 0.00 0.00 0.00 98 1018.1
20260901101205 19 135 4.8 6.4 0.00 0.00 0.00 98 1017.9
20260901100659 19 120 3.2 4.8 0.00 0.00 0.00 98 1018.1
20260901100154 19 65 3.2 4.8 0.00 0.00 0.00 98 1018.2
20260901095652 19 114 0.0 3.2 0.00 0.00 0.00 98 1018.2
20260901095150 19 166 0.0 4.8 0.00 0.00 0.00 98 1018.1
20260901094644 19 150 0.0 6.4 0.00 0.00 0.00 98 1018.1
20260901094139 19 196 0.0 3.2 0.00 0.00 0.00 98 1018.2
20260901093638 19 152 4.8 4.8 0.00 0.00 0.00 98 1018.0
20260901093138 19 82 0.0 4.8 0.00 0.00 0.00 98 1018.1
20260901092634 19 138 4.8 4.8 0.00 0.00 0.00 98 1018.2
20260901092130 19 153 1.6 3.2 0.00 0.00 0.00 98 1018.1
20260901091625 19 124 3.2 6.4 0.00 0.00 0.00 98 1018.3
20260901091121 19 109 3.2 3.2 0.00 0.00 0.00 98 1018.4
20260901090620 19 148 3.2 4.8 0.00 0.00 0.00 98 1018.4
20260901090116 19 56 0.0 4.8 0.00 0.00 0.00 98 1018.3
20260901085612 19 105 1.6 3.2 0.00 0.00 0.00 98 1018.5
20260901085107 19 143 0.0 3.2 0.00 0.00 0.00 98 1018.7
20260901084603 19 174 1.6 4.8 0.00 0.00 0.00 98 1018.6
20260901084100 19 144 4.8 6.4 0.00 0.00 0.00 98 1018.7
20260901083553 19 120 3.2 3.2 0.00 0.00 0.00 98 1018.6
20260901083051 19 101 3.2 3.2 0.00 0.00 0.00 97 1018.5
20260901082546 19 177 1.6 3.2 0.00 0.00 0.00 97 1018.6
20260901082042 19 136 3.2 4.8 0.00 0.00 0.00 97 1018.6
20260901081537 19 127 1.6 3.2 0.00 0.00 0.00 97 1018.7
20260901081032 19 337 3.2 3.2 0.00 0.00 0.00 97 1018.8
20260901080531 19 122 1.6 3.2 0.00 0.00 0.00 97 1018.9
20260901080025 19 129 0.0 3.2 0.00 0.00 0.00 97 1018.9
20260901075521 19 164 1.6 3.2 0.00 0.00 0.00 97 1018.8
20260901075020 19 144 3.2 6.4 0.00 0.00 0.00 97 1018.9
20260901074520 19 126 3.2 3.2 0.00 0.00 0.00 97 1018.9
20260901074015 19 131 3.2 3.2 0.00 0.00 0.00 97 1019.0
20260901073512 19 113 0.0 3.2 0.00 0.00 0.00 97 1018.9
20260901073007 19 98 3.2 4.8 0.00 0.00 0.00 96 1018.9
20260901072502 19 127 1.6 3.2 0.00 0.00 0.00 96 1018.9
20260901071956 19 112 0.0 3.2 0.00 0.00 0.00 96 1019.0
20260901071455 19 84 3.2 3.2 0.00 0.00 0.00 95 1019.3
20260901070955 19 89 0.0 1.6 0.00 0.00 0.00 95 1019.1
20260901070445 19 116 1.6 1.6 0.00 0.00 0.00 95 1019.1
20260901065944 19 134 3.2 6.4 0.00 0.00 0.00 95 1019.0
20260901065440 19 128 4.8 6.4 0.00 0.00 0.00 95 1019.0
20260901064934 19 140 3.2 4.8 0.00 0.00 0.00 95 1019.0
20260901064431 19 113 3.2 4.8 0.00 0.00 0.00 95 1019.3
20260901063928 19 88 3.2 6.4 0.00 0.00 0.00 95 1019.0
20260901063424 19 136 4.8 4.8 0.00 0.00 0.00 94 1019.3
20260901062920 19 138 3.2 4.8 0.00 0.00 0.00 94 1019.3
20260901062415 19 168 4.8 4.8 0.00 0.00 0.00 94 1019.3
20260901061910 19 126 1.6 6.4 0.00 0.00 0.00 94 1019.1
20260901061407 20 118 3.2 4.8 0.00 0.00 0.00 94 1019.4
20260901060901 20 148 3.2 3.2 0.00 0.00 0.00 94 1019.5
20260901060357 20 117 1.6 3.2 0.00 0.00 0.00 94 1019.7
20260901055856 20 122 1.6 3.2 0.00 0.00 0.00 94 1019.4
20260901055353 20 159 1.6 3.2 0.00 0.00 0.00 94 1019.6
20260901054849 20 123 3.2 3.2 0.00 0.00 0.00 93 1019.6
20260901054346 20 124 1.6 3.2 0.00 0.00 0.00 93 1019.6
20260901053842 20 119 1.6 3.2 0.00 0.00 0.00 93 1019.7
20260901053337 20 89 0.0 3.2 0.00 0.00 0.00 93 1019.7
20260901052832 20 124 1.6 3.2 0.00 0.00 0.00 92 1019.7
20260901052328 20 132 1.6 3.2 0.00 0.00 0.00 92 1019.7
20260901051826 20 147 0.0 6.4 0.00 0.00 0.00 91 1019.7
20260901051322 20 117 0.0 3.2 0.00 0.00 0.00 91 1019.6
20260901050817 20 130 0.0 3.2 0.00 0.00 0.00 91 1019.8
20260901050312 20 89 0.0 4.8 0.00 0.00 0.00 91 1019.9
20260901045802 20 149 4.8 4.8 0.00 0.00 0.00 91 1020.0
20260901045302 20 154 0.0 4.8 0.00 0.00 0.00 91 1019.9
20260901044757 20 136 1.6 3.2 0.00 0.00 0.00 91 1020.0
20260901044253 20 126 0.0 3.2 0.00 0.00 0.00 91 1020.0
20260901043749 20 130 3.2 3.2 0.00 0.00 0.00 91 1020.1
20260901043244 20 139 3.2 3.2 0.00 0.00 0.00 90 1020.0
20260901042744 20 129 1.6 4.8 0.00 0.00 0.00 90 1020.1
20260901042238 20 164 0.0 4.8 0.00 0.00 0.00 90 1020.0
20260901041734 20 130 1.6 3.2 0.00 0.00 0.00 90 1020.0
20260901041234 20 122 1.6 3.2 0.00 0.00 0.00 90 1019.9
20260901040729 20 133 3.2 4.8 0.00 0.00 0.00 90 1020.0
20260901040228 20 120 3.2 4.8 0.00 0.00 0.00 90 1020.1
20260901035726 20 148 1.6 3.2 0.00 0.00 0.00 90 1020.0
20260901035220 20 126 0.0 1.6 0.00 0.00 0.00 90 1020.2
20260901034719 20 129 1.6 3.2 0.00 0.00 0.00 90 1020.1
20260901034214 20 113 0.0 3.2 0.00 0.00 0.00 90 1020.1
20260901033714 20 135 3.2 4.8 0.00 0.00 0.00 89 1020.1
20260901033213 20 118 0.0 3.2 0.00 0.00 0.00 89 1020.3
20260901032712 20 125 0.0 3.2 0.00 0.00 0.00 89 1020.3
20260901032207 20 99 0.0 3.2 0.00 0.00 0.00 89 1020.3
20260901031657 20 113 0.0 3.2 0.00 0.00 0.00 89 1020.2
20260901031153 20 141 0.0 3.2 0.00 0.00 0.00 89 1020.3
20260901030652 20 138 0.0 3.2 0.00 0.00 0.00 89 1020.5
20260901030141 20 106 3.2 3.2 0.00 0.00 0.00 89 1020.6
20260901025635 20 88 3.2 4.8 0.00 0.00 0.00 88 1020.3
20260901025130 20 147 4.8 4.8 0.00 0.00 0.00 88 1020.3
20260901024624 20 156 3.2 6.4 0.00 0.00 0.00 88 1020.5
20260901024123 20 93 3.2 6.4 0.00 0.00 0.00 88 1020.5
20260901023622 20 115 1.6 4.8 0.00 0.00 0.00 87 1020.2
20260901023117 20 140 1.6 3.2 0.00 0.00 0.00 87 1020.3
20260901022612 20 128 0.0 6.4 0.00 0.00 0.00 87 1020.3
20260901022108 20 125 0.0 4.8 0.00 0.00 0.00 87 1020.3
20260901021603 20 133 1.6 9.7 0.00 0.00 0.00 87 1020.3
20260901021058 20 146 1.6 3.2 0.00 0.00 0.00 87 1020.3
20260901020554 20 126 3.2 4.8 0.00 0.00 0.00 87 1020.2
20260901020050 20 150 1.6 4.8 0.00 0.00 0.00 87 1020.3
20260901015545 20 154 3.2 3.2 0.00 0.00 0.00 86 1020.6
20260901015045 20 117 0.0 4.8 0.00 0.00 0.00 86 1020.6
20260901014540 20 162 1.6 6.4 0.00 0.00 0.00 86 1020.3
20260901014036 20 100 1.6 4.8 0.00 0.00 0.00 86 1020.5
20260901013532 20 146 3.2 9.7 0.00 0.00 0.00 85 1020.7
20260901013027 20 128 3.2 3.2 0.00 0.00 0.00 85 1020.9
20260901012527 20 117 3.2 4.8 0.00 0.00 0.00 85 1020.8
20260901012022 20 135 1.6 3.2 0.00 0.00 0.00 85 1020.7
20260901011519 20 135 0.0 3.2 0.00 0.00 0.00 85 1020.7
20260901011016 20 135 0.0 8.0 0.00 0.00 0.00 85 1020.8
20260901010511 20 192 1.6 3.2 0.00 0.00 0.00 84 1020.7
20260901010011 20 134 0.0 4.8 0.00 0.00 0.00 84 1020.7
20260901005505 20 120 6.4 6.4 0.00 0.00 0.00 83 1020.7
20260901005000 20 89 0.0 4.8 0.00 0.00 0.00 83 1020.6
20260901004500 20 195 0.0 6.4 0.00 0.00 0.00 83 1020.7
20260901003955 20 94 1.6 3.2 0.00 0.00 0.00 82 1020.7
20260901003450 20 128 4.8 4.8 0.00 0.00 0.00 82 1020.3
20260901002948 20 124 3.2 3.2 0.00 0.00 0.00 81 1020.5
20260901002443 20 149 1.6 4.8 0.00 0.00 0.00 81 1020.5
20260901001937 20 100 0.0 1.6 0.00 0.00 0.00 80 1020.3
20260901001433 20 87 3.2 4.8 0.00 0.00 0.00 80 1020.6
20260901000928 20 129 0.0 4.8 0.00 0.00 0.00 79 1020.5
20260901000423 20 198 1.6 3.2 0.00 0.00 0.00 79 1020.3
20260831235921 20 150 0.0 3.2 0.00 0.00 0.00 78 1020.5
20260831235417 20 130 0.0 3.2 0.00 0.00 0.00 78 1020.6
20260831234912 20 124 0.0 3.2 0.00 0.00 0.00 78 1020.6
20260831234411 20 119 1.6 8.0 0.00 0.00 0.00 77 1020.6
20260831233907 20 135 0.0 4.8 0.00 0.00 0.00 76 1020.7
20260831233402 20 144 3.2 6.4 0.00 0.00 0.00 76 1020.7
20260831232857 20 129 0.0 1.6 0.00 0.00 0.00 76 1020.9
20260831232353 20 120 0.0 3.2 0.00 0.00 0.00 76 1020.9
20260831231849 21 120 1.6 1.6 0.00 0.00 0.00 76 1020.7
20260831231345 21 143 0.0 3.2 0.00 0.00 0.00 76 1020.8
20260831230840 21 136 3.2 6.4 0.00 0.00 0.00 77 1020.9
20260831230336 21 135 0.0 1.6 0.00 0.00 0.00 78 1020.9
20260831225835 21 103 0.0 3.2 0.00 0.00 0.00 79 1020.9
20260831225331 21 164 0.0 3.2 0.00 0.00 0.00 78 1020.8
20260831224826 21 255 1.6 1.6 0.00 0.00 0.00 79 1021.2
20260831224321 21 188 0.0 3.2 0.00 0.00 0.00 80 1021.0
20260831223815 21 160 0.0 6.4 0.00 0.00 0.00 80 1021.0
20260831223312 21 118 3.2 6.4 0.00 0.00 0.00 80 1020.8
20260831222808 21 95 3.2 4.8 0.00 0.00 0.00 80 1020.8
20260831222306 21 151 4.8 6.4 0.00 0.00 0.00 80 1020.9
20260831221758 21 189 1.6 3.2 0.00 0.00 0.00 80 1020.7
20260831221255 22 147 0.0 3.2 0.00 0.00 0.00 79 1020.9
20260831220754 22 178 0.0 3.2 0.00 0.00 0.00 78 1021.0
20260831220249 22 137 0.0 6.4 0.00 0.00 0.00 78 1021.1
20260831215744 22 132 1.6 4.8 0.00 0.00 0.00 78 1020.9
20260831215241 22 175 0.0 8.0 0.00 0.00 0.00 77 1020.8
20260831214737 22 100 3.2 8.0 0.00 0.00 0.00 76 1020.8
20260831214234 22 126 0.0 6.4 0.00 0.00 0.00 76 1020.9
20260831213729 22 172 3.2 6.4 0.00 0.00 0.00 75 1020.7
20260831213226 22 127 4.8 8.0 0.00 0.00 0.00 74 1020.8
20260831212720 23 38 1.6 3.2 0.00 0.00 0.00 74 1021.0
20260831212217 23 122 3.2 6.4 0.00 0.00 0.00 72 1020.9
20260831211715 23 331 1.6 9.7 0.00 0.00 0.00 72 1020.9
20260831211211 23 256 3.2 4.8 0.00 0.00 0.00 70 1020.7
20260831210711 23 83 1.6 8.0 0.00 0.00 0.00 68 1020.9
20260831210207 23 205 1.6 4.8 0.00 0.00 0.00 67 1020.8
20260831205707 23 108 3.2 6.4 0.00 0.00 0.00 65 1020.5
20260831205203 23 182 3.2 9.7 0.00 0.00 0.00 64 1020.8
20260831204702 24 161 4.8 6.4 0.00 0.00 0.00 60 1020.7
20260831204201 25 98 1.6 3.2 0.00 0.00 0.00 60 1020.8
20260831203655 25 176 1.6 9.7 0.00 0.00 0.00 59 1020.8
20260831203149 25 216 1.6 11.3 0.00 0.00 0.00 60 1020.8
20260831202648 24 123 3.2 9.7 0.00 0.00 0.00 59 1020.8
20260831202143 25 213 4.8 4.8 0.00 0.00 0.00 58 1020.7
20260831201637 25 286 0.0 4.8 0.00 0.00 0.00 57 1020.8
20260831201131 24 234 1.6 6.4 0.00 0.00 0.00 61 1020.9
20260831200628 24 148 9.7 9.7 0.00 0.00 0.00 58 1020.7
20260831200127 24 302 3.2 8.0 0.00 0.00 0.00 60 1020.8
20260831195623 25 211 0.0 6.4 0.00 0.00 0.00 58 1020.9
20260831195118 25 189 1.6 9.7 0.00 0.00 0.00 57 1021.0
20260831194613 25 273 3.2 6.4 0.00 0.00 0.00 57 1021.0
20260831194108 25 157 3.2 11.3 0.00 0.00 0.00 57 1020.9
20260831193603 25 159 8.0 8.0 0.00 0.00 0.00 59 1021.2
20260831193103 25 214 3.2 8.0 0.00 0.00 0.00 62 1021.2
20260831192558 25 186 6.4 9.7 0.00 0.00 0.00 60 1021.1
20260831192053 25 149 6.4 8.0 0.00 0.00 0.00 60 1021.2
20260831191549 25 119 3.2 8.0 0.00 0.00 0.00 61 1021.2
20260831191045 25 182 3.2 8.0 0.00 0.00 0.00 64 1021.2
20260831190540 24 192 3.2 9.7 0.00 0.00 0.00 68 1021.4
20260831190038 24 127 3.2 4.8 0.00 0.00 0.00 68 1021.4
20260831185535 25 106 4.8 6.4 0.00 0.00 0.00 67 1021.4
20260831185030 25 238 3.2 4.8 0.00 0.00 0.00 67 1021.4
20260831184524 25 170 6.4 8.0 0.00 0.00 0.00 63 1021.2
20260831184020 25 196 3.2 9.7 0.00 0.00 0.00 62 1021.3
20260831183519 25 144 4.8 4.8 0.00 0.00 0.00 60 1021.4
20260831183018 25 229 0.0 4.8 0.00 0.00 0.00 58 1021.5
20260831182513 26 309 4.8 4.8 0.00 0.00 0.00 58 1021.3
20260831182009 26 311 0.0 4.8 0.00 0.00 0.00 58 1021.4
20260831181503 26 269 0.0 3.2 0.00 0.00 0.00 61 1021.5
20260831180958 26 149 4.8 6.4 0.00 0.00 0.00 58 1021.4
20260831180453 25 306 0.0 4.8 0.00 0.00 0.00 59 1021.7
20260831175952 26 144 1.6 6.4 0.00 0.00 0.00 56 1021.8
20260831175449 26 172 3.2 9.7 0.00 0.00 0.00 57 1021.7
20260831174944 26 142 1.6 8.0 0.00 0.00 0.00 55 1021.8
20260831174440 26 209 0.0 4.8 0.00 0.00 0.00 56 1021.9
20260831173939 25 156 6.4 9.7 0.00 0.00 0.00 59 1021.8
20260831173437 25 180 0.0 6.4 0.00 0.00 0.00 61 1021.9
20260831172933 25 85 3.2 8.0 0.00 0.00 0.00 59 1021.7
20260831172430 25 247 1.6 3.2 0.00 0.00 0.00 59 1021.8
20260831171929 25 230 0.0 4.8 0.00 0.00 0.00 60 1021.8
20260831171425 26 64 1.6 4.8 0.00 0.00 0.00 57 1022.0
20260831170922 25 183 3.2 6.4 0.00 0.00 0.00 57 1022.0
20260831170418 26 230 3.2 4.8 0.00 0.00 0.00 56 1021.8
20260831165914 26 128 0.0 6.4 0.00 0.00 0.00 56 1022.2
20260831165410 26 195 4.8 4.8 0.00 0.00 0.00 53 1022.1
20260831164906 25 158 3.2 9.7 0.00 0.00 0.00 56 1022.2
20260831164402 25 180 6.4 8.0 0.00 0.00 0.00 57 1022.2
20260831163857 24 303 3.2 6.4 0.00 0.00 0.00 57 1022.2
20260831163353 25 311 3.2 6.4 0.00 0.00 0.00 59 1022.2
20260831162851 26 173 3.2 4.8 0.00 0.00 0.00 54 1022.1
20260831162347 25 198 1.6 4.8 0.00 0.00 0.00 55 1022.2
20260831161845 26 186 3.2 3.2 0.00 0.00 0.00 53 1022.3
20260831161342 25 142 3.2 6.4 0.00 0.00 0.00 55 1022.4
20260831160838 25 60 3.2 6.4 0.00 0.00 0.00 59 1022.5
20260831160338 25 211 0.0 6.4 0.00 0.00 0.00 61 1022.2
20260831155832 25 165 1.6 8.0 0.00 0.00 0.00 59 1022.5
20260831155326 25 119 0.0 3.2 0.00 0.00 0.00 62 1022.6
20260831154822 25 180 4.8 4.8 0.00 0.00 0.00 62 1022.5
20260831154319 23 104 4.8 4.8 0.00 0.00 0.00 66 1022.4
20260831153817 23 21 3.2 8.0 0.00 0.00 0.00 66 1022.5
20260831153313 24 142 3.2 6.4 0.00 0.00 0.00 66 1022.3
20260831152809 23 357 1.6 4.8 0.00 0.00 0.00 69 1022.4
20260831152306 24 174 6.4 9.7 0.00 0.00 0.00 65 1022.6
20260831151759 24 61 0.0 3.2 0.00 0.00 0.00 64 1022.5
20260831151258 24 147 1.6 9.7 0.00 0.00 0.00 66 1022.5
20260831150753 24 164 4.8 8.0 0.00 0.00 0.00 64 1022.5
20260831150249 24 248 0.0 6.4 0.00 0.00 0.00 63 1022.7
20260831145748 23 139 1.6 11.3 0.00 0.00 0.00 66 1022.7
20260831145244 23 221 3.2 3.2 0.00 0.00 0.00 67 1022.7
20260831144740 23 76 3.2 6.4 0.00 0.00 0.00 65 1022.9
20260831144239 22 53 8.0 9.7 0.00 0.00 0.00 68 1022.7
20260831143736 23 74 3.2 8.0 0.00 0.00 0.00 68 1022.6
20260831143226 22 164 4.8 6.4 0.00 0.00 0.00 68 1022.7
20260831142722 23 126 9.7 9.7 0.00 0.00 0.00 66 1022.6
20260831142217 23 34 4.8 8.0 0.00 0.00 0.00 68 1022.5
20260831141716 23 12 4.8 6.4 0.00 0.00 0.00 67 1022.5
20260831141211 22 168 1.6 6.4 0.00 0.00 0.00 72 1022.5
20260831140710 22 324 3.2 4.8 0.00 0.00 0.00 75 1022.6
20260831140205 22 129 0.0 8.0 0.00 0.00 0.00 73 1022.4
20260831135702 22 31 3.2 4.8 0.00 0.00 0.00 75 1022.7
20260831135158 22 67 4.8 12.9 0.00 0.00 0.00 76 1022.3
20260831134654 22 356 4.8 8.0 0.00 0.00 0.00 75 1022.2
20260831134150 22 122 3.2 6.4 0.00 0.00 0.00 76 1022.1
20260831133649 21 75 3.2 4.8 0.00 0.00 0.00 79 1022.3
20260831133143 21 32 3.2 8.0 0.00 0.00 0.00 80 1022.5
20260831132639 21 3 4.8 8.0 0.00 0.00 0.00 80 1022.5
20260831132138 21 346 3.2 9.7 0.00 0.00 0.00 80 1022.5
20260831131633 20 20 4.8 9.7 0.00 0.00 0.00 81 1022.4
20260831131130 21 40 4.8 6.4 0.00 0.00 0.00 81 1022.4
20260831130625 20 15 4.8 6.4 0.00 0.00 0.00 82 1022.5
20260831130121 20 43 3.2 4.8 0.00 0.00 0.00 83 1022.4
20260831125618 20 102 1.6 6.4 0.00 0.00 0.00 83 1022.3
20260831125115 20 5 3.2 6.4 0.00 0.00 0.00 83 1022.5
20260831124611 20 53 3.2 3.2 0.00 0.00 0.00 83 1022.5
20260831124106 20 5 4.8 6.4 0.00 0.00 0.00 83 1022.5
20260831123606 20 41 0.0 6.4 0.00 0.00 0.00 84 1022.4
20260831123100 20 8 4.8 4.8 0.00 0.00 0.00 85 1022.4
20260831122554 19 94 3.2 8.0 0.00 0.00 0.00 85 1022.3
20260831122045 20 53 1.6 6.4 0.00 0.00 0.00 85 1022.3
20260831121544 18 2 3.2 6.4 0.00 0.00 0.00 86 1022.2
20260831121041 18 28 6.4 6.4 0.00 0.00 0.00 86 1022.2
20260831120540 18 35 6.4 9.7 0.00 0.00 0.00 86 1022.4
20260831120036 18 26 3.2 6.4 0.00 0.00 0.00 87 1022.2
20260831115532 18 13 1.6 6.4 0.00 0.00 0.00 87 1022.3
20260831115027 18 317 0.0 3.2 0.00 0.00 0.00 87 1022.1
20260831114526 19 124 1.6 4.8 0.00 0.00 0.00 87 1022.2
20260831114026 18 69 1.6 4.8 0.00 0.00 0.00 90 1022.1